owner,sensor,date,latitude,longitude,sea_surface_height_above_sea_level,qcFlag 
TCOON,ioos:station:TCOON:003:1,2017-11-01T00:18:00Z,26.8015,-97.4706,1.246,1111122 
TCOON,ioos:station:TCOON:003:1,2017-11-01T01:18:00Z,26.8015,-97.4706,1.244,1111122 
TCOON,ioos:station:TCOON:003:1,2017-11-01T02:18:00Z,26.8015,-97.4706,1.245,1111122 
TCOON,ioos:station:TCOON:003:1,2017-11-01T03:24:00Z,26.8015,-97.4706,1.239,1111122 
TCOON,ioos:station:TCOON:003:1,2017-11-01T04:18:00Z,26.8015,-97.4706,1.224,1111122 
TCOON,ioos:station:TCOON:003:1,2017-11-01T05:18:00Z,26.8015,-97.4706,1.189,1111122 
TCOON,ioos:station:TCOON:003:1,2017-11-01T06:18:00Z,26.8015,-97.4706,1.174,1111122 
TCOON,ioos:station:TCOON:003:1,2017-11-01T07:18:00Z,26.8015,-97.4706,1.185,1111122 
TCOON,ioos:station:TCOON:003:1,2017-11-01T08:18:00Z,26.8015,-97.4706,1.189,1111122 
TCOON,ioos:station:TCOON:003:1,2017-11-01T09:18:00Z,26.8015,-97.4706,1.188,1111122 
TCOON,ioos:station:TCOON:003:1,2017-11-01T10:18:00Z,26.8015,-97.4706,1.182,1111122 
TCOON,ioos:station:TCOON:003:1,2017-11-01T11:18:00Z,26.8015,-97.4706,1.18,1111122 
TCOON,ioos:station:TCOON:003:1,2017-11-01T12:18:00Z,26.8015,-97.4706,1.168,1111122 
TCOON,ioos:station:TCOON:003:1,2017-11-01T13:18:00Z,26.8015,-97.4706,1.152,1111122 
TCOON,ioos:station:TCOON:003:1,2017-11-01T14:18:00Z,26.8015,-97.4706,1.152,1111122 
TCOON,ioos:station:TCOON:003:1,2017-11-01T15:18:00Z,26.8015,-97.4706,1.152,1111122 
TCOON,ioos:station:TCOON:003:1,2017-11-01T16:18:00Z,26.8015,-97.4706,1.163,1111122 
TCOON,ioos:station:TCOON:003:1,2017-11-01T17:18:00Z,26.8015,-97.4706,1.177,1111122 
TCOON,ioos:station:TCOON:003:1,2017-11-01T18:18:00Z,26.8015,-97.4706,1.193,1111122 
TCOON,ioos:station:TCOON:003:1,2017-11-01T19:18:00Z,26.8015,-97.4706,1.201,1111122 
TCOON,ioos:station:TCOON:003:1,2017-11-01T20:18:00Z,26.8015,-97.4706,1.217,1111122 
TCOON,ioos:station:TCOON:003:1,2017-11-01T21:18:00Z,26.8015,-97.4706,1.261,1111122 
TCOON,ioos:station:TCOON:003:1,2017-11-01T22:18:00Z,26.8015,-97.4706,1.303,1111122 
TCOON,ioos:station:TCOON:003:1,2017-11-01T23:18:00Z,26.8015,-97.4706,1.326,1111122 
TCOON,ioos:station:TCOON:003:1,2017-11-02T00:18:00Z,26.8015,-97.4706,1.323,1111122 
TCOON,ioos:station:TCOON:003:1,2017-11-02T01:18:00Z,26.8015,-97.4706,1.311,1111122 
TCOON,ioos:station:TCOON:003:1,2017-11-02T02:18:00Z,26.8015,-97.4706,1.286,1111122 
TCOON,ioos:station:TCOON:003:1,2017-11-02T03:18:00Z,26.8015,-97.4706,1.253,1111122 
TCOON,ioos:station:TCOON:003:1,2017-11-02T04:18:00Z,26.8015,-97.4706,1.233,1111122 
TCOON,ioos:station:TCOON:003:1,2017-11-02T05:18:00Z,26.8015,-97.4706,1.232,1111122 
TCOON,ioos:station:TCOON:003:1,2017-11-02T06:18:00Z,26.8015,-97.4706,1.224,1111122 
TCOON,ioos:station:TCOON:003:1,2017-11-02T07:18:00Z,26.8015,-97.4706,1.214,1111122 
TCOON,ioos:station:TCOON:003:1,2017-11-02T08:18:00Z,26.8015,-97.4706,1.21,1111122 
TCOON,ioos:station:TCOON:003:1,2017-11-02T09:18:00Z,26.8015,-97.4706,1.211,1111122 
TCOON,ioos:station:TCOON:003:1,2017-11-02T10:18:00Z,26.8015,-97.4706,1.22,1111122 
TCOON,ioos:station:TCOON:003:1,2017-11-02T11:18:00Z,26.8015,-97.4706,1.226,1111122 
TCOON,ioos:station:TCOON:003:1,2017-11-02T12:18:00Z,26.8015,-97.4706,1.226,1111122 
TCOON,ioos:station:TCOON:003:1,2017-11-02T13:18:00Z,26.8015,-97.4706,1.222,1111122 
TCOON,ioos:station:TCOON:003:1,2017-11-02T14:18:00Z,26.8015,-97.4706,1.228,1111122 
TCOON,ioos:station:TCOON:003:1,2017-11-02T15:18:00Z,26.8015,-97.4706,1.224,1111122 
TCOON,ioos:station:TCOON:003:1,2017-11-02T16:18:00Z,26.8015,-97.4706,1.214,1111122 
TCOON,ioos:station:TCOON:003:1,2017-11-02T17:18:00Z,26.8015,-97.4706,1.219,1111122 
TCOON,ioos:station:TCOON:003:1,2017-11-02T18:18:00Z,26.8015,-97.4706,1.228,1111122 
TCOON,ioos:station:TCOON:003:1,2017-11-02T19:18:00Z,26.8015,-97.4706,1.255,1111122 
TCOON,ioos:station:TCOON:003:1,2017-11-02T20:18:00Z,26.8015,-97.4706,1.295,1111122 
TCOON,ioos:station:TCOON:003:1,2017-11-02T21:18:00Z,26.8015,-97.4706,1.321,1111122 
TCOON,ioos:station:TCOON:003:1,2017-11-02T22:18:00Z,26.8015,-97.4706,1.335,1111122 
TCOON,ioos:station:TCOON:003:1,2017-11-02T23:18:00Z,26.8015,-97.4706,1.343,1111122 
TCOON,ioos:station:TCOON:003:1,2017-11-03T00:18:00Z,26.8015,-97.4706,1.337,1111122 
TCOON,ioos:station:TCOON:003:1,2017-11-03T01:18:00Z,26.8015,-97.4706,1.32,1111122 
TCOON,ioos:station:TCOON:003:1,2017-11-03T02:18:00Z,26.8015,-97.4706,1.283,1111122 
TCOON,ioos:station:TCOON:003:1,2017-11-03T03:18:00Z,26.8015,-97.4706,1.257,1111122 
TCOON,ioos:station:TCOON:003:1,2017-11-03T04:24:00Z,26.8015,-97.4706,1.245,1111122 
TCOON,ioos:station:TCOON:003:1,2017-11-03T05:18:00Z,26.8015,-97.4706,1.242,1111122 
TCOON,ioos:station:TCOON:003:1,2017-11-03T06:18:00Z,26.8015,-97.4706,1.244,1111122 
TCOON,ioos:station:TCOON:003:1,2017-11-03T07:18:00Z,26.8015,-97.4706,1.237,1111122 
TCOON,ioos:station:TCOON:003:1,2017-11-03T08:18:00Z,26.8015,-97.4706,1.232,1111122 
TCOON,ioos:station:TCOON:003:1,2017-11-03T09:18:00Z,26.8015,-97.4706,1.226,1111122 
TCOON,ioos:station:TCOON:003:1,2017-11-03T10:18:00Z,26.8015,-97.4706,1.238,1111122 
TCOON,ioos:station:TCOON:003:1,2017-11-03T11:18:00Z,26.8015,-97.4706,1.232,1111122 
TCOON,ioos:station:TCOON:003:1,2017-11-03T12:18:00Z,26.8015,-97.4706,1.226,1111122 
TCOON,ioos:station:TCOON:003:1,2017-11-03T13:18:00Z,26.8015,-97.4706,1.187,1111122 
TCOON,ioos:station:TCOON:003:1,2017-11-03T14:18:00Z,26.8015,-97.4706,1.175,1111122 
TCOON,ioos:station:TCOON:003:1,2017-11-03T15:18:00Z,26.8015,-97.4706,1.189,1111122 
TCOON,ioos:station:TCOON:003:1,2017-11-03T16:18:00Z,26.8015,-97.4706,1.192,1111122 
TCOON,ioos:station:TCOON:003:1,2017-11-03T17:18:00Z,26.8015,-97.4706,1.206,1111122 
TCOON,ioos:station:TCOON:003:1,2017-11-03T18:18:00Z,26.8015,-97.4706,1.231,1111122 
TCOON,ioos:station:TCOON:003:1,2017-11-03T19:18:00Z,26.8015,-97.4706,1.246,1111122 
TCOON,ioos:station:TCOON:003:1,2017-11-03T20:18:00Z,26.8015,-97.4706,1.269,1111122 
TCOON,ioos:station:TCOON:003:1,2017-11-03T21:18:00Z,26.8015,-97.4706,1.289,1111122 
TCOON,ioos:station:TCOON:003:1,2017-11-03T22:18:00Z,26.8015,-97.4706,1.307,1111122 
TCOON,ioos:station:TCOON:003:1,2017-11-03T23:24:00Z,26.8015,-97.4706,1.316,1111122 
TCOON,ioos:station:TCOON:003:1,2017-11-04T00:24:00Z,26.8015,-97.4706,1.319,1111122 
TCOON,ioos:station:TCOON:003:1,2017-11-04T01:30:00Z,26.8015,-97.4706,1.321,1111122 
TCOON,ioos:station:TCOON:003:1,2017-11-04T02:18:00Z,26.8015,-97.4706,1.304,1111122 
TCOON,ioos:station:TCOON:003:1,2017-11-04T03:18:00Z,26.8015,-97.4706,1.283,1111122 
TCOON,ioos:station:TCOON:003:1,2017-11-04T04:18:00Z,26.8015,-97.4706,1.272,1111122 
TCOON,ioos:station:TCOON:003:1,2017-11-04T05:18:00Z,26.8015,-97.4706,1.273,1111122 
TCOON,ioos:station:TCOON:003:1,2017-11-04T06:18:00Z,26.8015,-97.4706,1.269,1111122 
TCOON,ioos:station:TCOON:003:1,2017-11-04T07:18:00Z,26.8015,-97.4706,1.245,1111122 
TCOON,ioos:station:TCOON:003:1,2017-11-04T08:18:00Z,26.8015,-97.4706,1.227,1111122 
TCOON,ioos:station:TCOON:003:1,2017-11-04T09:18:00Z,26.8015,-97.4706,1.228,1111122 
TCOON,ioos:station:TCOON:003:1,2017-11-04T10:18:00Z,26.8015,-97.4706,1.223,1111122 
TCOON,ioos:station:TCOON:003:1,2017-11-04T11:18:00Z,26.8015,-97.4706,1.232,1111122 
TCOON,ioos:station:TCOON:003:1,2017-11-04T12:18:00Z,26.8015,-97.4706,1.23,1111122 
TCOON,ioos:station:TCOON:003:1,2017-11-04T13:18:00Z,26.8015,-97.4706,1.222,1111122 
TCOON,ioos:station:TCOON:003:1,2017-11-04T14:18:00Z,26.8015,-97.4706,1.21,1111122 
TCOON,ioos:station:TCOON:003:1,2017-11-04T15:18:00Z,26.8015,-97.4706,1.208,1111122 
TCOON,ioos:station:TCOON:003:1,2017-11-04T16:18:00Z,26.8015,-97.4706,1.206,1111122 
TCOON,ioos:station:TCOON:003:1,2017-11-04T17:18:00Z,26.8015,-97.4706,1.211,1111122 
TCOON,ioos:station:TCOON:003:1,2017-11-04T18:18:00Z,26.8015,-97.4706,1.23,1111122 
TCOON,ioos:station:TCOON:003:1,2017-11-04T19:18:00Z,26.8015,-97.4706,1.241,1111122 
TCOON,ioos:station:TCOON:003:1,2017-11-04T20:18:00Z,26.8015,-97.4706,1.265,1111122 
TCOON,ioos:station:TCOON:003:1,2017-11-04T21:18:00Z,26.8015,-97.4706,1.276,1111122 
TCOON,ioos:station:TCOON:003:1,2017-11-04T22:18:00Z,26.8015,-97.4706,1.29,1111122 
TCOON,ioos:station:TCOON:003:1,2017-11-04T23:18:00Z,26.8015,-97.4706,1.318,1111122 
TCOON,ioos:station:TCOON:003:1,2017-11-05T00:18:00Z,26.8015,-97.4706,1.333,1111122 
TCOON,ioos:station:TCOON:003:1,2017-11-05T01:18:00Z,26.8015,-97.4706,1.312,1111122 
TCOON,ioos:station:TCOON:003:1,2017-11-05T02:18:00Z,26.8015,-97.4706,1.292,1111122 
TCOON,ioos:station:TCOON:003:1,2017-11-05T03:18:00Z,26.8015,-97.4706,1.281,1111122 
TCOON,ioos:station:TCOON:003:1,2017-11-05T04:18:00Z,26.8015,-97.4706,1.29,1111122 
TCOON,ioos:station:TCOON:003:1,2017-11-05T05:18:00Z,26.8015,-97.4706,1.296,1111122 
TCOON,ioos:station:TCOON:003:1,2017-11-05T06:18:00Z,26.8015,-97.4706,1.293,1111122 
TCOON,ioos:station:TCOON:003:1,2017-11-05T07:18:00Z,26.8015,-97.4706,1.276,1111122 
TCOON,ioos:station:TCOON:003:1,2017-11-05T08:18:00Z,26.8015,-97.4706,1.235,1111122 
TCOON,ioos:station:TCOON:003:1,2017-11-05T09:18:00Z,26.8015,-97.4706,1.278,1111122 
TCOON,ioos:station:TCOON:003:1,2017-11-05T10:18:00Z,26.8015,-97.4706,1.286,1111122 
TCOON,ioos:station:TCOON:003:1,2017-11-05T11:24:00Z,26.8015,-97.4706,1.285,1111122 
TCOON,ioos:station:TCOON:003:1,2017-11-05T12:18:00Z,26.8015,-97.4706,1.282,1111122 
TCOON,ioos:station:TCOON:003:1,2017-11-05T13:18:00Z,26.8015,-97.4706,1.277,1111122 
TCOON,ioos:station:TCOON:003:1,2017-11-05T14:18:00Z,26.8015,-97.4706,1.274,1111122 
TCOON,ioos:station:TCOON:003:1,2017-11-05T15:18:00Z,26.8015,-97.4706,1.272,1111122 
TCOON,ioos:station:TCOON:003:1,2017-11-05T16:18:00Z,26.8015,-97.4706,1.286,1111122 
TCOON,ioos:station:TCOON:003:1,2017-11-05T17:18:00Z,26.8015,-97.4706,1.297,1111122 
TCOON,ioos:station:TCOON:003:1,2017-11-05T18:18:00Z,26.8015,-97.4706,1.279,1111122 
TCOON,ioos:station:TCOON:003:1,2017-11-05T19:18:00Z,26.8015,-97.4706,1.257,1111122 
TCOON,ioos:station:TCOON:003:1,2017-11-05T20:18:00Z,26.8015,-97.4706,1.27,1111122 
TCOON,ioos:station:TCOON:003:1,2017-11-05T21:18:00Z,26.8015,-97.4706,1.3,1111122 
TCOON,ioos:station:TCOON:003:1,2017-11-05T22:18:00Z,26.8015,-97.4706,1.332,1111122 
TCOON,ioos:station:TCOON:003:1,2017-11-05T23:18:00Z,26.8015,-97.4706,1.354,1111122 
TCOON,ioos:station:TCOON:003:1,2017-11-06T00:18:00Z,26.8015,-97.4706,1.369,1111122 
TCOON,ioos:station:TCOON:003:1,2017-11-06T01:18:00Z,26.8015,-97.4706,1.37,1111122 
TCOON,ioos:station:TCOON:003:1,2017-11-06T02:18:00Z,26.8015,-97.4706,1.359,1111122 
TCOON,ioos:station:TCOON:003:1,2017-11-06T03:18:00Z,26.8015,-97.4706,1.347,1111122 
TCOON,ioos:station:TCOON:003:1,2017-11-06T04:18:00Z,26.8015,-97.4706,1.35,1111122 
TCOON,ioos:station:TCOON:003:1,2017-11-06T05:18:00Z,26.8015,-97.4706,1.382,1111122 
TCOON,ioos:station:TCOON:003:1,2017-11-06T06:18:00Z,26.8015,-97.4706,1.384,1111122 
TCOON,ioos:station:TCOON:003:1,2017-11-06T07:18:00Z,26.8015,-97.4706,1.366,1111122 
TCOON,ioos:station:TCOON:003:1,2017-11-06T08:18:00Z,26.8015,-97.4706,1.354,1111122 
TCOON,ioos:station:TCOON:003:1,2017-11-06T09:18:00Z,26.8015,-97.4706,1.349,1111122 
TCOON,ioos:station:TCOON:003:1,2017-11-06T10:18:00Z,26.8015,-97.4706,1.349,1111122 
TCOON,ioos:station:TCOON:003:1,2017-11-06T11:18:00Z,26.8015,-97.4706,1.343,1111122 
TCOON,ioos:station:TCOON:003:1,2017-11-06T12:18:00Z,26.8015,-97.4706,1.316,1111122 
TCOON,ioos:station:TCOON:003:1,2017-11-06T13:18:00Z,26.8015,-97.4706,1.287,1111122 
TCOON,ioos:station:TCOON:003:1,2017-11-06T14:18:00Z,26.8015,-97.4706,1.276,1111122 
TCOON,ioos:station:TCOON:003:1,2017-11-06T15:18:00Z,26.8015,-97.4706,1.277,1111122 
TCOON,ioos:station:TCOON:003:1,2017-11-06T16:18:00Z,26.8015,-97.4706,1.298,1111122 
TCOON,ioos:station:TCOON:003:1,2017-11-06T17:18:00Z,26.8015,-97.4706,1.307,1111122 
TCOON,ioos:station:TCOON:003:1,2017-11-06T18:18:00Z,26.8015,-97.4706,1.301,1111122 
TCOON,ioos:station:TCOON:003:1,2017-11-06T19:18:00Z,26.8015,-97.4706,1.311,1111122 
TCOON,ioos:station:TCOON:003:1,2017-11-06T20:18:00Z,26.8015,-97.4706,1.331,1111122 
TCOON,ioos:station:TCOON:003:1,2017-11-06T21:18:00Z,26.8015,-97.4706,1.346,1111122 
TCOON,ioos:station:TCOON:003:1,2017-11-06T22:18:00Z,26.8015,-97.4706,1.36,1111122 
TCOON,ioos:station:TCOON:003:1,2017-11-06T23:18:00Z,26.8015,-97.4706,1.365,1111122 
TCOON,ioos:station:TCOON:003:1,2017-11-07T00:18:00Z,26.8015,-97.4706,1.379,1111122 
TCOON,ioos:station:TCOON:003:1,2017-11-07T01:18:00Z,26.8015,-97.4706,1.38,1111122 
TCOON,ioos:station:TCOON:003:1,2017-11-07T02:18:00Z,26.8015,-97.4706,1.367,1111122 
TCOON,ioos:station:TCOON:003:1,2017-11-07T03:18:00Z,26.8015,-97.4706,1.356,1111122 
TCOON,ioos:station:TCOON:003:1,2017-11-07T04:18:00Z,26.8015,-97.4706,1.345,1111122 
TCOON,ioos:station:TCOON:003:1,2017-11-07T05:18:00Z,26.8015,-97.4706,1.34,1111122 
TCOON,ioos:station:TCOON:003:1,2017-11-07T06:18:00Z,26.8015,-97.4706,1.342,1111122 
TCOON,ioos:station:TCOON:003:1,2017-11-07T07:18:00Z,26.8015,-97.4706,1.342,1111122 
TCOON,ioos:station:TCOON:003:1,2017-11-07T08:18:00Z,26.8015,-97.4706,1.338,1111122 
TCOON,ioos:station:TCOON:003:1,2017-11-07T09:18:00Z,26.8015,-97.4706,1.334,1111122 
TCOON,ioos:station:TCOON:003:1,2017-11-07T10:18:00Z,26.8015,-97.4706,1.312,1111122 
TCOON,ioos:station:TCOON:003:1,2017-11-07T11:18:00Z,26.8015,-97.4706,1.289,1111122 
TCOON,ioos:station:TCOON:003:1,2017-11-07T12:18:00Z,26.8015,-97.4706,1.284,1111122 
TCOON,ioos:station:TCOON:003:1,2017-11-07T13:18:00Z,26.8015,-97.4706,1.277,1111122 
TCOON,ioos:station:TCOON:003:1,2017-11-07T14:18:00Z,26.8015,-97.4706,1.266,1111122 
TCOON,ioos:station:TCOON:003:1,2017-11-07T16:24:00Z,26.8015,-97.4706,1.263,1111122 
TCOON,ioos:station:TCOON:003:1,2017-11-07T17:18:00Z,26.8015,-97.4706,1.265,1111122 
TCOON,ioos:station:TCOON:003:1,2017-11-07T18:48:00Z,26.8015,-97.4706,1.266,1111122 
TCOON,ioos:station:TCOON:003:1,2017-11-07T19:18:00Z,26.8015,-97.4706,1.261,1111122 
TCOON,ioos:station:TCOON:003:1,2017-11-07T20:18:00Z,26.8015,-97.4706,1.271,1111122 
TCOON,ioos:station:TCOON:003:1,2017-11-07T21:24:00Z,26.8015,-97.4706,1.298,1111122 
TCOON,ioos:station:TCOON:003:1,2017-11-07T22:36:00Z,26.8015,-97.4706,1.318,1111122 
TCOON,ioos:station:TCOON:003:1,2017-11-07T23:18:00Z,26.8015,-97.4706,1.325,1111122 
TCOON,ioos:station:TCOON:003:1,2017-11-08T00:18:00Z,26.8015,-97.4706,1.333,1111122 
TCOON,ioos:station:TCOON:003:1,2017-11-08T01:18:00Z,26.8015,-97.4706,1.345,1111122 
TCOON,ioos:station:TCOON:003:1,2017-11-08T02:18:00Z,26.8015,-97.4706,1.344,1111122 
TCOON,ioos:station:TCOON:003:1,2017-11-08T04:06:00Z,26.8015,-97.4706,1.327,1111122 
TCOON,ioos:station:TCOON:003:1,2017-11-08T05:30:00Z,26.8015,-97.4706,1.305,1111122 
TCOON,ioos:station:TCOON:003:1,2017-11-08T06:30:00Z,26.8015,-97.4706,1.291,1111122 
TCOON,ioos:station:TCOON:003:1,2017-11-08T07:30:00Z,26.8015,-97.4706,1.275,1111122 
TCOON,ioos:station:TCOON:003:1,2017-11-08T08:24:00Z,26.8015,-97.4706,1.268,1111122 
TCOON,ioos:station:TCOON:003:1,2017-11-08T09:30:00Z,26.8015,-97.4706,1.255,1111122 
TCOON,ioos:station:TCOON:003:1,2017-11-08T10:18:00Z,26.8015,-97.4706,1.25,1111122 
TCOON,ioos:station:TCOON:003:1,2017-11-08T11:18:00Z,26.8015,-97.4706,1.24,1111122 
TCOON,ioos:station:TCOON:003:1,2017-11-08T12:18:00Z,26.8015,-97.4706,1.231,1111122 
TCOON,ioos:station:TCOON:003:1,2017-11-08T13:18:00Z,26.8015,-97.4706,1.202,1111122 
TCOON,ioos:station:TCOON:003:1,2017-11-08T14:18:00Z,26.8015,-97.4706,1.178,1111122 
TCOON,ioos:station:TCOON:003:1,2017-11-08T15:18:00Z,26.8015,-97.4706,1.151,1111122 
TCOON,ioos:station:TCOON:003:1,2017-11-08T16:18:00Z,26.8015,-97.4706,1.123,1111122 
TCOON,ioos:station:TCOON:003:1,2017-11-08T17:18:00Z,26.8015,-97.4706,1.091,1111122 
TCOON,ioos:station:TCOON:003:1,2017-11-08T18:18:00Z,26.8015,-97.4706,1.053,1111122 
TCOON,ioos:station:TCOON:003:1,2017-11-08T19:18:00Z,26.8015,-97.4706,1.021,1111122 
TCOON,ioos:station:TCOON:003:1,2017-11-08T20:18:00Z,26.8015,-97.4706,0.989,1111122 
TCOON,ioos:station:TCOON:003:1,2017-11-08T21:18:00Z,26.8015,-97.4706,0.962,1111122 
TCOON,ioos:station:TCOON:003:1,2017-11-08T22:18:00Z,26.8015,-97.4706,0.938,1111122 
TCOON,ioos:station:TCOON:003:1,2017-11-08T23:18:00Z,26.8015,-97.4706,0.914,1111122 
TCOON,ioos:station:TCOON:003:1,2017-11-09T00:18:00Z,26.8015,-97.4706,0.881,1111122 
TCOON,ioos:station:TCOON:003:1,2017-11-09T01:18:00Z,26.8015,-97.4706,0.854,1111122 
TCOON,ioos:station:TCOON:003:1,2017-11-09T02:18:00Z,26.8015,-97.4706,0.829,1111122 
TCOON,ioos:station:TCOON:003:1,2017-11-09T03:18:00Z,26.8015,-97.4706,0.842,1111122 
TCOON,ioos:station:TCOON:003:1,2017-11-09T04:18:00Z,26.8015,-97.4706,0.872,1111122 
TCOON,ioos:station:TCOON:003:1,2017-11-09T05:18:00Z,26.8015,-97.4706,0.909,1111122 
TCOON,ioos:station:TCOON:003:1,2017-11-09T06:18:00Z,26.8015,-97.4706,0.927,1111122 
TCOON,ioos:station:TCOON:003:1,2017-11-09T07:18:00Z,26.8015,-97.4706,0.933,1111122 
TCOON,ioos:station:TCOON:003:1,2017-11-09T08:18:00Z,26.8015,-97.4706,0.933,1111122 
TCOON,ioos:station:TCOON:003:1,2017-11-09T09:18:00Z,26.8015,-97.4706,0.942,1111122 
TCOON,ioos:station:TCOON:003:1,2017-11-09T10:18:00Z,26.8015,-97.4706,0.938,1111122 
TCOON,ioos:station:TCOON:003:1,2017-11-09T11:18:00Z,26.8015,-97.4706,0.927,1111122 
TCOON,ioos:station:TCOON:003:1,2017-11-09T12:18:00Z,26.8015,-97.4706,0.928,1111122 
TCOON,ioos:station:TCOON:003:1,2017-11-09T13:18:00Z,26.8015,-97.4706,0.949,1111122 
TCOON,ioos:station:TCOON:003:1,2017-11-09T14:18:00Z,26.8015,-97.4706,0.97,1111122 
TCOON,ioos:station:TCOON:003:1,2017-11-09T15:18:00Z,26.8015,-97.4706,0.977,1111122 
TCOON,ioos:station:TCOON:003:1,2017-11-09T16:18:00Z,26.8015,-97.4706,0.974,1111122 
TCOON,ioos:station:TCOON:003:1,2017-11-09T17:18:00Z,26.8015,-97.4706,0.974,1111122 
TCOON,ioos:station:TCOON:003:1,2017-11-09T18:18:00Z,26.8015,-97.4706,0.973,1111122 
TCOON,ioos:station:TCOON:003:1,2017-11-09T19:18:00Z,26.8015,-97.4706,0.976,1111122 
TCOON,ioos:station:TCOON:003:1,2017-11-09T20:18:00Z,26.8015,-97.4706,0.972,1111122 
TCOON,ioos:station:TCOON:003:1,2017-11-09T21:18:00Z,26.8015,-97.4706,0.962,1111122 
TCOON,ioos:station:TCOON:003:1,2017-11-09T22:18:00Z,26.8015,-97.4706,0.956,1111122 
TCOON,ioos:station:TCOON:003:1,2017-11-09T23:18:00Z,26.8015,-97.4706,0.944,1111122 
TCOON,ioos:station:TCOON:003:1,2017-11-10T00:18:00Z,26.8015,-97.4706,0.932,1111122 
TCOON,ioos:station:TCOON:003:1,2017-11-10T01:18:00Z,26.8015,-97.4706,0.924,1111122 
TCOON,ioos:station:TCOON:003:1,2017-11-10T02:18:00Z,26.8015,-97.4706,0.923,1111122 
TCOON,ioos:station:TCOON:003:1,2017-11-10T03:18:00Z,26.8015,-97.4706,0.93,1111122 
TCOON,ioos:station:TCOON:003:1,2017-11-10T04:18:00Z,26.8015,-97.4706,0.931,1111122 
TCOON,ioos:station:TCOON:003:1,2017-11-10T05:18:00Z,26.8015,-97.4706,0.937,1111122 
TCOON,ioos:station:TCOON:003:1,2017-11-10T06:18:00Z,26.8015,-97.4706,0.938,1111122 
TCOON,ioos:station:TCOON:003:1,2017-11-10T07:18:00Z,26.8015,-97.4706,0.946,1111122 
TCOON,ioos:station:TCOON:003:1,2017-11-10T08:18:00Z,26.8015,-97.4706,0.939,1111122 
TCOON,ioos:station:TCOON:003:1,2017-11-10T09:18:00Z,26.8015,-97.4706,0.932,1111122 
TCOON,ioos:station:TCOON:003:1,2017-11-10T10:18:00Z,26.8015,-97.4706,0.932,1111122 
TCOON,ioos:station:TCOON:003:1,2017-11-10T11:18:00Z,26.8015,-97.4706,0.944,1111122 
TCOON,ioos:station:TCOON:003:1,2017-11-10T12:18:00Z,26.8015,-97.4706,0.955,1111122 
TCOON,ioos:station:TCOON:003:1,2017-11-10T13:18:00Z,26.8015,-97.4706,0.966,1111122 
TCOON,ioos:station:TCOON:003:1,2017-11-10T14:18:00Z,26.8015,-97.4706,0.977,1111122 
TCOON,ioos:station:TCOON:003:1,2017-11-10T15:18:00Z,26.8015,-97.4706,0.982,1111122 
TCOON,ioos:station:TCOON:003:1,2017-11-10T16:18:00Z,26.8015,-97.4706,0.976,1111122 
TCOON,ioos:station:TCOON:003:1,2017-11-10T17:18:00Z,26.8015,-97.4706,0.991,1111122 
TCOON,ioos:station:TCOON:003:1,2017-11-10T18:18:00Z,26.8015,-97.4706,0.989,1111122 
TCOON,ioos:station:TCOON:003:1,2017-11-10T19:18:00Z,26.8015,-97.4706,0.997,1111122 
TCOON,ioos:station:TCOON:003:1,2017-11-10T20:18:00Z,26.8015,-97.4706,1.019,1111122 
TCOON,ioos:station:TCOON:003:1,2017-11-10T21:18:00Z,26.8015,-97.4706,1.059,1111122 
TCOON,ioos:station:TCOON:003:1,2017-11-10T22:18:00Z,26.8015,-97.4706,1.091,1111122 
TCOON,ioos:station:TCOON:003:1,2017-11-10T23:18:00Z,26.8015,-97.4706,1.084,1111122 
TCOON,ioos:station:TCOON:003:1,2017-11-11T00:18:00Z,26.8015,-97.4706,1.102,1111122 
TCOON,ioos:station:TCOON:003:1,2017-11-11T01:18:00Z,26.8015,-97.4706,1.101,1111122 
TCOON,ioos:station:TCOON:003:1,2017-11-11T02:18:00Z,26.8015,-97.4706,1.109,1111122 
TCOON,ioos:station:TCOON:003:1,2017-11-11T03:18:00Z,26.8015,-97.4706,1.14,1111122 
TCOON,ioos:station:TCOON:003:1,2017-11-11T04:18:00Z,26.8015,-97.4706,1.163,1111122 
TCOON,ioos:station:TCOON:003:1,2017-11-11T05:18:00Z,26.8015,-97.4706,1.181,1111122 
TCOON,ioos:station:TCOON:003:1,2017-11-11T06:18:00Z,26.8015,-97.4706,1.19,1111122 
TCOON,ioos:station:TCOON:003:1,2017-11-11T07:18:00Z,26.8015,-97.4706,1.199,1111122 
TCOON,ioos:station:TCOON:003:1,2017-11-11T08:18:00Z,26.8015,-97.4706,1.209,1111122 
TCOON,ioos:station:TCOON:003:1,2017-11-11T09:18:00Z,26.8015,-97.4706,1.208,1111122 
TCOON,ioos:station:TCOON:003:1,2017-11-11T10:18:00Z,26.8015,-97.4706,1.214,1111122 
TCOON,ioos:station:TCOON:003:1,2017-11-11T11:18:00Z,26.8015,-97.4706,1.231,1111122 
TCOON,ioos:station:TCOON:003:1,2017-11-11T12:18:00Z,26.8015,-97.4706,1.236,1111122 
TCOON,ioos:station:TCOON:003:1,2017-11-11T13:18:00Z,26.8015,-97.4706,1.251,1111122 
TCOON,ioos:station:TCOON:003:1,2017-11-11T14:18:00Z,26.8015,-97.4706,1.256,1111122 
TCOON,ioos:station:TCOON:003:1,2017-11-11T15:18:00Z,26.8015,-97.4706,1.268,1111122 
TCOON,ioos:station:TCOON:003:1,2017-11-11T16:18:00Z,26.8015,-97.4706,1.293,1111122 
TCOON,ioos:station:TCOON:003:1,2017-11-11T17:18:00Z,26.8015,-97.4706,1.299,1111122 
TCOON,ioos:station:TCOON:003:1,2017-11-11T18:18:00Z,26.8015,-97.4706,1.303,1111122 
TCOON,ioos:station:TCOON:003:1,2017-11-11T19:18:00Z,26.8015,-97.4706,1.302,1111122 
TCOON,ioos:station:TCOON:003:1,2017-11-11T20:18:00Z,26.8015,-97.4706,1.3,1111122 
TCOON,ioos:station:TCOON:003:1,2017-11-11T21:18:00Z,26.8015,-97.4706,1.303,1111122 
TCOON,ioos:station:TCOON:003:1,2017-11-11T22:18:00Z,26.8015,-97.4706,1.301,1111122 
TCOON,ioos:station:TCOON:003:1,2017-11-11T23:18:00Z,26.8015,-97.4706,1.297,1111122 
TCOON,ioos:station:TCOON:003:1,2017-11-12T00:18:00Z,26.8015,-97.4706,1.292,1111122 
TCOON,ioos:station:TCOON:003:1,2017-11-12T01:18:00Z,26.8015,-97.4706,1.297,1111122 
TCOON,ioos:station:TCOON:003:1,2017-11-12T02:18:00Z,26.8015,-97.4706,1.306,1111122 
TCOON,ioos:station:TCOON:003:1,2017-11-12T03:18:00Z,26.8015,-97.4706,1.279,1111122 
TCOON,ioos:station:TCOON:003:1,2017-11-12T04:18:00Z,26.8015,-97.4706,1.279,1111122 
TCOON,ioos:station:TCOON:003:1,2017-11-12T05:18:00Z,26.8015,-97.4706,1.276,1111122 
TCOON,ioos:station:TCOON:003:1,2017-11-12T06:18:00Z,26.8015,-97.4706,1.288,1111122 
TCOON,ioos:station:TCOON:003:1,2017-11-12T07:18:00Z,26.8015,-97.4706,1.311,1111122 
TCOON,ioos:station:TCOON:003:1,2017-11-12T08:18:00Z,26.8015,-97.4706,1.307,1111122 
TCOON,ioos:station:TCOON:003:1,2017-11-12T09:18:00Z,26.8015,-97.4706,1.284,1111122 
TCOON,ioos:station:TCOON:003:1,2017-11-12T10:18:00Z,26.8015,-97.4706,1.271,1111122 
TCOON,ioos:station:TCOON:003:1,2017-11-12T11:18:00Z,26.8015,-97.4706,1.281,1111122 
TCOON,ioos:station:TCOON:003:1,2017-11-12T12:18:00Z,26.8015,-97.4706,1.287,1111122 
TCOON,ioos:station:TCOON:003:1,2017-11-12T13:18:00Z,26.8015,-97.4706,1.272,1111122 
TCOON,ioos:station:TCOON:003:1,2017-11-12T14:18:00Z,26.8015,-97.4706,1.265,1111122 
TCOON,ioos:station:TCOON:003:1,2017-11-12T15:18:00Z,26.8015,-97.4706,1.273,1111122 
TCOON,ioos:station:TCOON:003:1,2017-11-12T16:18:00Z,26.8015,-97.4706,1.289,1111122 
TCOON,ioos:station:TCOON:003:1,2017-11-12T17:18:00Z,26.8015,-97.4706,1.284,1111122 
TCOON,ioos:station:TCOON:003:1,2017-11-12T18:18:00Z,26.8015,-97.4706,1.278,1111122 
TCOON,ioos:station:TCOON:003:1,2017-11-12T19:18:00Z,26.8015,-97.4706,1.273,1111122 
TCOON,ioos:station:TCOON:003:1,2017-11-12T20:18:00Z,26.8015,-97.4706,1.28,1111122 
TCOON,ioos:station:TCOON:003:1,2017-11-12T21:18:00Z,26.8015,-97.4706,1.303,1111122 
TCOON,ioos:station:TCOON:003:1,2017-11-12T22:18:00Z,26.8015,-97.4706,1.316,1111122 